Johnstown, PA

3:34 PM EDT on June 28, 2017 (GMT -0400)
Johnstown-Cambria County

Weather History for KJST - November, 2014

Change the Weather History Date:

Thursday, November 13, 2014

  Actual Average Record
Temperature  
Mean Temperature 28 °F 41 °F  
Max Temperature 31 °F 47 °F 75 °F (1989)
Min Temperature 24 °F 35 °F 13 °F (1911)
Degree Days  
Heating Degree Days 37 24  
Month to date heating degree days 287 284  
Since 1 July heating degree days 925 977  
Cooling Degree Days 0 0  
Month to date cooling degree days 0 0  
Year to date cooling degree days 341 382  
Moisture  
Dew Point 23 °F    
Average Humidity 81    
Maximum Humidity 92    
Minimum Humidity 69    
Precipitation  
Precipitation 0.01 in 0.11 in 1.26 in (1935)
Month to date precipitation 0.77 1.53  
Year to date precipitation 30.78 28.88  
Sea Level Pressure  
Sea Level Pressure 30.07 in    
Wind  
Wind Speed 9 mph (WNW)    
Max Wind Speed 20 mph    
Max Gust Speed 24 mph    
Visibility 5 miles    
Events Snow    
T = Trace of Precipitation, MM = Missing Value Source: NWS Daily Summary

Daily Weather History Graph

Daily Weather History Graph

Search for Another Location

Airport or City:

Trip Planner

Search our weather history database for the weather conditions in past years. The results will help you decide how hot, cold, wet, or windy it might be!

Date:

Astronomy

Nov. 13, 2014 Rise Set
Actual Time 6:58 AM EST 4:59 PM EST
Civil Twilight 6:29 AM EST 5:28 PM EST
Nautical Twilight 5:57 AM EST 6:01 PM EST
Astronomical Twilight 5:24 AM EST 6:33 PM EST
Moon 11:14 PM EST (11/13) 12:18 PM EST (11/13)
Length of Visible Light 10h 59m
Length of Day
10h 01m
Waning Gibbous, 59% of the Moon is Illuminated
Nov 13
Waning Gibbous
Nov 14
Last Quarter
Nov 22
New
Nov 29
First Quarter
Dec 6
Full

Hourly Weather History & Observations

Time (EST) Temp. Windchill Dew Point Humidity Pressure Visibility Wind Dir Wind Speed Gust Speed Precip Events Conditions
12:54 AM 30.9 °F 21.7 °F 21.9 °F 69% 30.16 in 10.0 mi West 11.5 mph - N/A   Overcast
1:54 AM 30.9 °F 23.5 °F 21.9 °F 69% 30.16 in 10.0 mi West 8.1 mph - N/A   Overcast
2:54 AM 30.0 °F 23.2 °F 21.9 °F 72% 30.16 in 10.0 mi West 6.9 mph - N/A   Overcast
3:54 AM 30.0 °F 24.1 °F 21.0 °F 69% 30.14 in 10.0 mi WNW 5.8 mph - N/A   Overcast
4:54 AM 30.0 °F 23.2 °F 21.9 °F 72% 30.14 in 10.0 mi WNW 6.9 mph - N/A   Overcast
5:54 AM 30.0 °F 22.4 °F 21.9 °F 72% 30.15 in 10.0 mi WNW 8.1 mph - N/A   Overcast
6:54 AM 30.0 °F 22.4 °F 21.9 °F 72% 30.14 in 10.0 mi NW 8.1 mph - N/A   Overcast
7:54 AM 28.9 °F 22.8 °F 21.9 °F 75% 30.16 in 10.0 mi West 5.8 mph - N/A   Overcast
8:54 AM 30.0 °F 25.2 °F 21.9 °F 72% 30.14 in 10.0 mi WNW 4.6 mph - N/A   Overcast
9:54 AM 30.0 °F 25.2 °F 21.9 °F 72% 30.14 in 10.0 mi West 4.6 mph - N/A   Overcast
10:54 AM 30.0 °F 22.4 °F 21.9 °F 72% 30.12 in 10.0 mi WNW 8.1 mph - N/A   Overcast
11:54 AM 30.0 °F 24.1 °F 23.0 °F 75% 30.11 in 8.0 mi West 5.8 mph - N/A   Overcast
12:54 PM 30.0 °F 22.4 °F 24.1 °F 79% 30.09 in 3.0 mi West 8.1 mph - 0.00 in Snow Light Snow
1:54 PM 30.0 °F 22.4 °F 25.0 °F 82% 30.07 in 2.0 mi West 8.1 mph - 0.00 in Snow Light Snow
2:14 PM 28.9 °F 20.4 °F 24.1 °F 82% 30.00 in 2.5 mi West 9.2 mph - 0.00 in Snow Light Snow
2:19 PM 28.9 °F 21.9 °F 25.0 °F 85% 29.99 in 3.0 mi West 6.9 mph - 0.00 in   Overcast
2:34 PM 28.9 °F 21.1 °F 25.0 °F 85% 29.99 in 4.0 mi West 8.1 mph - 0.00 in   Overcast
2:54 PM 28.9 °F 21.9 °F 25.0 °F 85% 30.07 in 5.0 mi West 6.9 mph - 0.00 in   Overcast
3:54 PM 28.9 °F 19.2 °F 25.0 °F 85% 30.06 in 2.5 mi WNW 11.5 mph - 0.00 in Snow Light Snow
4:18 PM 28.0 °F 20.0 °F 25.0 °F 88% 29.99 in 3.0 mi West 8.1 mph - 0.00 in Snow Light Snow
4:54 PM 28.9 °F 20.4 °F 25.0 °F 85% 30.07 in 5.0 mi West 9.2 mph - 0.00 in Snow Light Snow
5:25 PM 28.0 °F 18.6 °F 24.1 °F 85% 30.00 in 2.5 mi West 10.4 mph - 0.00 in Snow Light Snow
5:29 PM 28.0 °F 18.1 °F 24.1 °F 85% 30.00 in 2.0 mi West 11.5 mph - 0.00 in Snow Light Snow
5:54 PM 28.0 °F 18.1 °F 24.1 °F 85% 30.08 in 2.5 mi WNW 11.5 mph - 0.00 in Snow Light Snow
6:11 PM 27.0 °F 15.2 °F 24.1 °F 89% 30.01 in 1.8 mi WNW 15.0 mph - 0.00 in Snow Light Snow
6:28 PM 27.0 °F 16.1 °F 24.1 °F 89% 30.01 in 1.8 mi West 12.7 mph - 0.01 in Snow Light Snow
6:50 PM 26.6 °F 16.2 °F 24.8 °F 93% 30.02 in 0.8 mi WNW 11.5 mph - 0.01 in Snow Light Snow
6:54 PM 27.0 °F 15.6 °F 24.1 °F 89% 30.10 in 1.0 mi WNW 13.8 mph - 0.01 in Snow Light Snow
7:19 PM 26.1 °F 13.1 °F 23.0 °F 88% 30.02 in 2.0 mi WNW 17.3 mph 23.0 mph 0.00 in Snow Light Snow
7:35 PM 26.1 °F 14.0 °F 21.9 °F 84% 30.02 in 3.0 mi WNW 15.0 mph - 0.00 in Snow Light Snow
7:52 PM 26.6 °F 14.3 °F 21.2 °F 80% 30.02 in 7.0 mi WNW 16.1 mph - 0.00 in   Overcast
7:54 PM 26.1 °F 14.0 °F 21.9 °F 84% 30.11 in 7.0 mi WNW 15.0 mph - 0.00 in   Overcast
8:54 PM 26.1 °F 14.0 °F 21.0 °F 81% 30.12 in 8.0 mi WNW 15.0 mph 20.7 mph 0.00 in   Overcast
9:10 PM 26.1 °F 15.6 °F 19.9 °F 78% 30.04 in 9.0 mi WNW 11.5 mph - N/A   Overcast
9:44 PM 25.0 °F 14.8 °F 21.0 °F 85% 30.04 in 5.0 mi West 10.4 mph - 0.00 in Snow Light Snow
9:54 PM 25.0 °F 14.2 °F 19.9 °F 81% 30.12 in 6.0 mi West 11.5 mph - 0.00 in   Haze
10:15 PM 25.0 °F 14.8 °F 19.9 °F 81% 30.04 in 2.5 mi West 10.4 mph - 0.00 in Snow Light Snow
10:28 PM 25.0 °F 14.2 °F 21.0 °F 85% 30.04 in 1.5 mi West 11.5 mph - 0.00 in Snow Light Snow
10:36 PM 25.0 °F 13.1 °F 21.0 °F 85% 30.04 in 1.5 mi West 13.8 mph 20.7 mph 0.00 in Snow Light Snow
10:43 PM 25.0 °F 13.6 °F 21.0 °F 85% 30.04 in 1.2 mi West 12.7 mph - 0.00 in Snow Light Snow
10:50 PM 24.8 °F 14.0 °F 21.2 °F 86% 30.04 in 1.2 mi West 11.5 mph - 0.00 in Snow Light Snow
10:54 PM 24.1 °F 12.5 °F 21.0 °F 88% 30.12 in 1.0 mi West 12.7 mph - 0.00 in Snow Light Snow
11:16 PM 24.1 °F 13.7 °F 21.0 °F 88% 30.03 in 1.2 mi West 10.4 mph - 0.00 in Snow Light Snow
11:54 PM 24.1 °F 12.5 °F 21.0 °F 88% 30.12 in 1.8 mi WNW 12.7 mph - 0.00 in Snow Light Snow